This is the latest recevied weather packets stored in our database for station/object JI6FPP-13. If no packets are shown the sender has not sent any weather packets the latest 10 day(s).
| Time | Temp. | Humidity | Pressure | Rain* | Wind** | Luminosity | Snow |
|---|---|---|---|---|---|---|---|
| 1777933580 | 12.78° C | 61% | 1015 hPa | 0 mm | - | - | - |
| 1777932980 | 12.22° C | 62% | 1015 hPa | 0 mm | - | - | - |
| 1777932379 | 11.67° C | 62% | 1015 hPa | 0 mm | - | - | - |
| 1777931779 | 11.11° C | 63% | 1015 hPa | 0 mm | - | - | - |
| 1777931179 | 11.11° C | 65% | 1015 hPa | 0 mm | - | - | - |
| 1777930579 | 10.56° C | 66% | 1015 hPa | 0 mm | - | - | - |
| 1777929980 | 10° C | 66% | 1015 hPa | 0 mm | - | - | - |
| 1777929380 | 10° C | 65% | 1014 hPa | 0 mm | - | - | - |
| 1777928779 | 9.44° C | 64% | 1014 hPa | 0 mm | - | - | - |
| 1777928179 | 9.44° C | 63% | 1014 hPa | 0 mm | - | - | - |
| 1777927580 | 9.44° C | 63% | 1014 hPa | 0 mm | - | - | - |
| 1777926980 | 10° C | 64% | 1014 hPa | 0 mm | - | - | - |
| 1777926380 | 10° C | 64% | 1014 hPa | 0 mm | - | - | - |
| 1777925780 | 10° C | 65% | 1014 hPa | 0 mm | - | - | - |
| 1777925180 | 10° C | 65% | 1014 hPa | 0 mm | - | - | - |
| 1777924579 | 10° C | 64% | 1014 hPa | 0 mm | - | - | - |
| 1777923980 | 10° C | 62% | 1014 hPa | 0 mm | - | - | - |
| 1777923380 | 10° C | 62% | 1014 hPa | 0 mm | - | - | - |
| 1777922779 | 10° C | 62% | 1014 hPa | 0 mm | - | - | - |
| 1777922180 | 10.56° C | 63% | 1013 hPa | 0 mm | - | - | - |
| 1777921580 | 10.56° C | 64% | 1013 hPa | 0 mm | - | - | - |
| 1777920979 | 10.56° C | 65% | 1013 hPa | 0 mm | - | - | - |
| 1777920380 | 10.56° C | 63% | 1013 hPa | 0 mm | - | - | - |
| 1777919780 | 10.56° C | 59% | 1013 hPa | 0 mm | - | - | - |
| 1777919180 | 10.56° C | 59% | 1013 hPa | 0 mm | - | - | - |
* Rain latest hour (hover to see other rain measurements)
** Current wind speed in m/s (hover to see current wind gust speed)